This is the latest recevied weather packets stored in our database for station/object WW3TRG. If no packets are shown the sender has not sent any weather packets the latest 10 day(s).
| Time | Temp. | Humidity | Pressure | Rain* | Wind** | Luminosity | Snow |
|---|---|---|---|---|---|---|---|
| 1777410191 | 13.89° C | 74% | 1017.9 hPa | 0 mm | - | 50 W/m² | - |
| 1777409886 | 13.89° C | 78% | 1017.6 hPa | 0 mm | - | 49 W/m² | - |
| 1777409582 | 14.44° C | 71% | 1017.7 hPa | 0 mm | - | 39 W/m² | - |
| 1777409277 | 14.44° C | 74% | 1017.9 hPa | 0 mm | - | 48 W/m² | - |
| 1777408974 | 15° C | 73% | 1017.7 hPa | 0 mm | - | 62 W/m² | - |
| 1777408670 | 15° C | 66% | 1017.6 hPa | 0 mm | - | 53 W/m² | - |
| 1777408366 | 15° C | 65% | 1017.6 hPa | 0 mm | - | 75 W/m² | - |
| 1777408065 | 15° C | 63% | 1017.7 hPa | 0 mm | - | 61 W/m² | - |
| 1777407762 | 15.56° C | 59% | 1017.6 hPa | 0 mm | - | 53 W/m² | - |
| 1777407457 | 15.56° C | 60% | 1017.6 hPa | 0 mm | - | 51 W/m² | - |
| 1777407152 | 15° C | 60% | 1018 hPa | 0 mm | - | 56 W/m² | - |
| 1777406848 | 15° C | 59% | 1017.9 hPa | 0 mm | - | 56 W/m² | - |
| 1777406543 | 15° C | 61% | 1018.1 hPa | 0 mm | - | 56 W/m² | - |
| 1777406239 | 15° C | 60% | 1018 hPa | 0 mm | - | 61 W/m² | - |
| 1777405938 | 15° C | 61% | 1018.2 hPa | 0 mm | - | 56 W/m² | - |
| 1777405635 | 15° C | 60% | 1018.1 hPa | 0 mm | - | 64 W/m² | - |
| 1777405332 | 15° C | 60% | 1018 hPa | 0 mm | - | 69 W/m² | - |
| 1777405027 | 15.56° C | 57% | 1018.1 hPa | 0 mm | - | 79 W/m² | - |
| 1777404722 | 15.56° C | 56% | 1018.1 hPa | 0 mm | - | 83 W/m² | - |
| 1777404418 | 15.56° C | 59% | 1018.3 hPa | 0 mm | - | 86 W/m² | - |
| 1777404115 | 15.56° C | 56% | 1018.3 hPa | 0 mm | - | 93 W/m² | - |
| 1777403811 | 15.56° C | 57% | 1018.3 hPa | 0 mm | - | 97 W/m² | - |
| 1777403510 | 15.56° C | 56% | 1018.5 hPa | 0 mm | - | 87 W/m² | - |
| 1777403204 | 15.56° C | 57% | 1018.8 hPa | 0 mm | - | 99 W/m² | - |
| 1777402900 | 15.56° C | 57% | 1018.5 hPa | 0 mm | - | 76 W/m² | - |
* Rain latest hour (hover to see other rain measurements)
** Current wind speed in m/s (hover to see current wind gust speed)